Alliance, NE

1:54 PM MDT on July 21, 2017 (GMT -0600)
Alliance Municipal

Weather History for KAIA - October, 2013

Change the Weather History Date:

Sunday, October 13, 2013

  Actual Average Record
Temperature  
Mean Temperature 51 °F 47 °F  
Max Temperature 63 °F 63 °F 86 °F (1991)
Min Temperature 38 °F 30 °F 15 °F (2002)
Degree Days  
Heating Degree Days 14 18  
Month to date heating degree days 227 204  
Since 1 July heating degree days 356 449  
Cooling Degree Days 0 0  
Month to date cooling degree days 0 0  
Year to date cooling degree days 795 563  
Moisture  
Dew Point 39 °F    
Average Humidity 64    
Maximum Humidity 85    
Minimum Humidity 43    
Precipitation  
Precipitation 0.05 in 0.04 in 0.83 in (2007)
Month to date precipitation 0.83 0.58  
Year to date precipitation 12.77 14.38  
Sea Level Pressure  
Sea Level Pressure 30.08 in    
Wind  
Wind Speed 20 mph (SSE)    
Max Wind Speed 36 mph    
Max Gust Speed 44 mph    
Visibility 10 miles    
Events Rain , Thunderstorm    
T = Trace of Precipitation, MM = Missing Value Source: NWS Daily Summary

Daily Weather History Graph

Daily Weather History Graph

Search for Another Location

Airport or City:

Trip Planner

Search our weather history database for the weather conditions in past years. The results will help you decide how hot, cold, wet, or windy it might be!

Date:

Astronomy

Oct. 13, 2013 Rise Set
Actual Time 7:01 AM MDT 6:12 PM MDT
Civil Twilight 6:33 AM MDT 6:40 PM MDT
Nautical Twilight 6:01 AM MDT 7:12 PM MDT
Astronomical Twilight 5:28 AM MDT 7:44 PM MDT
Moon 3:09 PM MDT (10/13) 1:08 AM MDT (10/13)
Length of Visible Light 12h 06m
Length of Day
11h 10m
Waxing Gibbous, 70% of the Moon is Illuminated
Oct 13
Waxing Gibbous
Oct 18
Full
Oct 26
Last Quarter
Nov 3
New
Nov 9
First Quarter

Hourly Weather History & Observations

Time (MDT) Temp. Windchill Dew Point Humidity Pressure Visibility Wind Dir Wind Speed Gust Speed Precip Events Conditions
12:53 AM 42.1 °F 35.2 °F 34.0 °F 73% 30.18 in 10.0 mi SSE 12.7 mph - N/A   Clear
1:53 AM 39.9 °F 33.9 °F 33.1 °F 77% 30.18 in 10.0 mi SSE 9.2 mph - N/A   Clear
2:53 AM 39.0 °F 31.8 °F 33.1 °F 79% 30.19 in 10.0 mi SSE 11.5 mph - N/A   Clear
3:53 AM 37.9 °F 30.9 °F 34.0 °F 86% 30.18 in 10.0 mi SSE 10.4 mph - N/A   Clear
4:53 AM 39.9 °F 32.5 °F 35.1 °F 83% 30.18 in 10.0 mi SE 12.7 mph - N/A   Mostly Cloudy
5:53 AM 39.9 °F 32.9 °F 36.0 °F 86% 30.19 in 10.0 mi SE 11.5 mph - N/A   Mostly Cloudy
6:53 AM 39.0 °F 31.4 °F 35.1 °F 86% 30.20 in 10.0 mi SE 12.7 mph - N/A   Clear
7:53 AM 42.1 °F 37.1 °F 36.0 °F 79% 30.22 in 10.0 mi SE 8.1 mph - N/A   Clear
8:53 AM 46.9 °F - 35.1 °F 63% 30.19 in 10.0 mi SSE 20.7 mph 28.8 mph N/A   Clear
9:53 AM 51.1 °F - 36.0 °F 56% 30.18 in 10.0 mi South 24.2 mph 34.5 mph N/A   Clear
10:53 AM 57.0 °F - 37.9 °F 49% 30.15 in 10.0 mi SSE 29.9 mph 35.7 mph N/A   Clear
11:53 AM 59.0 °F - 39.9 °F 49% 30.11 in 10.0 mi South 29.9 mph 43.7 mph N/A   Clear
12:53 PM 61.0 °F - 42.1 °F 50% 30.09 in 10.0 mi South 28.8 mph 41.4 mph N/A   Clear
1:53 PM 62.1 °F - 42.1 °F 48% 30.07 in 10.0 mi SSE 25.3 mph 34.5 mph N/A   Scattered Clouds
2:53 PM 62.1 °F - 41.0 °F 46% 30.03 in 10.0 mi South 28.8 mph 38.0 mph N/A   Clear
3:53 PM 62.1 °F - 39.9 °F 44% 30.02 in 10.0 mi South 25.3 mph 39.1 mph N/A   Clear
4:53 PM 61.0 °F - 41.0 °F 48% 30.00 in 10.0 mi SSE 26.5 mph 38.0 mph N/A   Clear
5:53 PM 57.9 °F - 39.9 °F 51% 30.01 in 10.0 mi SSE 23.0 mph 28.8 mph N/A   Clear
6:53 PM 55.0 °F - 37.9 °F 53% 30.03 in 10.0 mi SE 19.6 mph 27.6 mph N/A   Clear
7:53 PM 54.0 °F - 37.0 °F 53% 30.04 in 10.0 mi SE 18.4 mph - N/A   Partly Cloudy
8:53 PM 55.0 °F - 37.0 °F 51% 30.01 in 10.0 mi SE 24.2 mph 32.2 mph N/A   Overcast
9:53 PM 55.0 °F - 39.0 °F 55% 29.96 in 10.0 mi SE 23.0 mph 31.1 mph N/A   Overcast
10:46 PM 55.4 °F - 41.0 °F 58% 29.98 in 10.0 mi SE 25.3 mph 35.7 mph N/A Thunderstorm Overcast
10:53 PM 55.0 °F - 42.1 °F 62% 29.91 in 10.0 mi SSE 26.5 mph 39.1 mph N/A Thunderstorm Overcast
11:01 PM 53.6 °F - 42.8 °F 67% 29.98 in 10.0 mi SSE 27.6 mph 38.0 mph 0.00 in Rain Light Rain
11:16 PM 53.6 °F - 42.8 °F 67% 29.97 in 10.0 mi SSE 21.9 mph 34.5 mph 0.00 in Rain , Thunderstorm Light Rain
11:45 PM 51.8 °F - 46.4 °F 82% 29.96 in 10.0 mi SE 20.7 mph 26.5 mph 0.05 in Thunderstorm Thunderstorm
11:53 PM 52.0 °F - 45.0 °F 77% 29.89 in 10.0 mi SE 18.4 mph 29.9 mph 0.05 in Thunderstorm Thunderstorm